Regional Weather Roundup
Issued by NWS

Home | Current Version | Previous Version | Text Only | Print | Product List | Glossary Off
Versions: 1 2 3 4 5 6 7 8 9 10 11 12 13 14 15 16 17 18 19 20 21 22 23 24 25 26 27 28 29 30 31 32 33 34 35 36 37 38 39 40 41 42 43 44 45 46 47 48 49 50

000
ASUS45 KSLC 221110
RWRUT

UTAH REGIONAL WEATHER ROUNDUP
NATIONAL WEATHER SERVICE SALT LAKE CITY UT
500 AM MDT TUE JUL 22 2014

UTZ001>011-023>025-221200-

NORTHERN UTAH

CITY           SKY/WX    TMP DP  RH WIND       PRES   REMARKS
HILL AFB       CLEAR     68  40  35 SE15      30.20R
LOGAN          NOT AVBL
OGDEN          CLEAR     69  40  34 S7        30.17R
PROVO AIRPORT  CLEAR     61  37  41 E5        30.22R
SALT LAKE CITY PTCLDY    67  47  48 CALM      30.16R
VERNAL         CLEAR     62  33  33 W3        30.25R
WENDOVER       CLEAR     70  48  46 SW3       30.18R
WEST JORDAN    CLEAR     72  45  37 CALM      30.20R

$$

UTZ012>022-026-027-221200-

SOUTHERN UTAH

CITY           SKY/WX    TMP DP  RH WIND       PRES   REMARKS
BRYCE CANYON   PTCLDY    42  27  55 W9        30.45S
CEDAR CITY     CLEAR     54  30  40 NE6       30.27S
MILFORD        CLEAR     56  29  35 S7        30.23R
MOAB/CYNLANDS  CLEAR     63  23  21 CALM      30.16R
PRICE          CLEAR     63  22  20 NE6       30.29R
ST GEORGE      SUNNY     72  25  17 SE7       30.10R
KANAB            N/A     55  30  38 NE7       30.28S

$$

REGIONAL REPORTS     COLORADO/ARIZONA

CITY           SKY/WX    TMP DP  RH WIND       PRES   REMARKS
CRAIG, CO      CLEAR     39  39 100 CALM      30.35R
GRAND JUNCTION CLEAR     65  29  25 E9        30.22R
RIFLE          CLEAR     56  31  38 E3        30.31R
MONTROSE       CLEAR     62  33  33 E6        30.32R
CORTEZ         CLEAR     48  36  63 NE3       30.31R
PAGE, AZ       CLEAR     74  26  16 SE7       30.18R
GRAND CANYON   CLEAR     47  34  60 CALM      30.37S
KINGMAN        CLEAR     73  39  29 VRB3      30.10F
FLAGSTAFF      CLEAR     54  35  48 CALM      30.39S

$$

REGIONAL REPORTS    NEVADA/IDAHO/WYOMING

CITY           SKY/WX    TMP DP  RH WIND       PRES   REMARKS
LAS VEGAS, NV  CLEAR     84  33  16 S7        29.96R
ELY            CLEAR     52  34  50 S12       30.31R
ELKO           CLEAR     55  51  86 CALM      30.23R
POCATELLO, ID  CLEAR     59  52  77 S9        30.22S
BURLEY         MOCLDY    58  52  80 CALM      30.18R
EVANSTON, WY   CLEAR     55  34  45 SE7       30.38S
ROCK SPRINGS   CLEAR     61  33  35 SE8       30.37S

$$



USA.gov is the U.S. government's official web portal to all federal, state and local government web resources and services.